[[{"header":{"parameterUnit":"m.s-1","parameterCategory":1,"la1":30.2991,"la2":30.254,"lo1":-89.0895,"lo2":-89.0444,"dy":0.0017,"dx":0.0017,"nx":28,"ny":28,"refTime":"2025-11-27T03:00:00:Z","depth":0,"parameterNumber":2,"parameterNumberName":"U-component_of_WINDS"},"data":[0,0,0,0,0,0,0,0,0,0,0,0,0,0,0,0,0,0,0,0,0,0,0,0,0,0,0,0,0,0,0,0,0,0,0,0,0,0,0,0,0,0,0,0,0,0,0,0,0,0,0,0,0,0,0,0,0,0,-1.6404,-1.6404,0,-1.639,-1.639,-1.639,-1.6347,-1.6346,-1.6346,-1.6345,-1.6332,-1.6333,-1.6333,0,0,0,0,0,0,0,0,0,0,0,0,0,-1.6393,-1.6394,-1.6404,-1.6404,-1.6403,-1.639,-1.639,-1.639,-1.6348,-1.6346,-1.6345,-1.6344,-1.6332,-1.6333,-1.6333,0,0,0,0,0,0,0,0,0,0,0,0,0,-1.6391,-1.6394,-1.6404,-1.6381,-1.6378,-1.639,-1.639,-1.639,-1.6348,-1.6346,-1.6345,-1.6344,-1.6332,-1.6333,-1.6333,-1.6367,0,0,-1.6336,-1.6336,0,0,0,0,0,0,0,0,-1.6391,-1.6391,-1.6384,-1.6382,-1.638,-1.6369,-1.6382,-1.6382,-1.6348,-1.636,-1.6345,-1.6343,-1.6346,-1.6345,-1.6346,-1.6367,-1.6366,-1.6336,-1.6337,-1.6337,-1.6337,0,0,0,0,0,0,0,-1.6391,-1.6391,-1.6398,-1.6384,-1.6381,-1.6371,-1.6369,-1.6382,-1.6361,-1.6358,-1.6355,-1.6354,-1.6344,-1.6345,-1.6345,-1.6366,-1.6336,-1.6337,-1.6337,-1.6338,-1.6413,-1.6415,0,0,0,0,0,0,-1.6394,-1.6392,-1.6399,-1.6398,-1.6382,-1.6372,-1.637,-1.6374,-1.6361,-1.6357,-1.6355,-1.6352,-1.6345,-1.6344,-1.6345,-1.6383,-1.6337,-1.6338,-1.6338,-1.6412,-1.6414,-1.6415,0,0,0,0,0,0,-1.6394,-1.6395,-1.6399,-1.6394,-1.6394,-1.6374,-1.6379,-1.6374,-1.6375,-1.6358,-1.6354,-1.636,-1.6343,-1.6344,-1.6362,-1.6382,-1.6338,-1.6339,-1.641,-1.6412,-1.6415,-1.6461,0,0,0,0,0,0,-1.6394,-1.6396,-1.6408,-1.6395,-1.6394,-1.6417,-1.638,-1.6375,-1.6377,-1.6373,-1.6362,-1.6359,-1.6342,-1.6361,-1.6363,-1.6383,-1.6339,-1.6408,-1.6411,-1.6414,-1.6458,-1.6465,-1.6471,0,0,0,0,0,-1.6394,-1.6422,-1.6409,-1.641,-1.6409,-1.6418,-1.6418,-1.6398,-1.6379,-1.6391,-1.638,-1.6359,-1.638,-1.6363,-1.6365,-1.6385,-1.6407,-1.641,-1.6414,-1.6455,-1.6463,-1.6471,0,0,0,0,0,0,-1.6439,-1.642,-1.6405,-1.643,-1.6426,-1.6411,-1.6426,-1.6408,-1.6409,-1.6405,-1.6381,-1.6379,-1.6401,-1.6395,-1.6376,-1.6417,-1.639,-1.6394,-1.642,-1.6428,-1.6435,-1.6436,-1.634,0,0,0,0,0,-1.6452,-1.646,-1.6443,-1.6466,-1.6465,-1.6446,-1.6449,-1.6434,-1.6429,-1.6427,-1.6417,-1.6414,-1.6419,-1.6423,-1.6428,-1.6456,-1.6454,-1.6471,-1.6478,-1.6483,-1.6487,-1.6502,-1.651,-1.6426,-1.6426,-1.6426,0,0,-1.6478,-1.6469,-1.6476,-1.6475,-1.647,-1.6479,-1.6445,-1.6456,-1.6463,-1.6429,-1.6445,-1.6438,-1.6432,-1.6456,-1.6466,-1.6452,-1.651,-1.6488,-1.6492,-1.6493,-1.6507,-1.6514,-1.6522,-1.6429,-1.6428,-1.6428,0,0,-1.6531,-1.6525,-1.6543,-1.6539,-1.6532,-1.6519,-1.6524,-1.6511,-1.6505,-1.6521,-1.6496,-1.6503,-1.6514,-1.6511,-1.651,-1.6562,-1.6543,-1.6564,-1.6598,-1.6613,-1.662,-1.6625,-1.6644,-1.6651,-1.6568,-1.6568,-1.6568,0,-1.6565,-1.6578,-1.6556,-1.6568,-1.6569,-1.6538,-1.6557,-1.6554,-1.6549,-1.655,-1.6534,-1.6546,-1.654,-1.6562,-1.6575,-1.6576,-1.658,-1.6565,-1.662,-1.6626,-1.6631,-1.6649,-1.6656,-1.657,-1.657,-1.657,-1.657,0,-1.662,-1.6629,-1.6645,-1.6641,-1.6643,-1.6659,-1.6639,-1.6644,-1.6629,-1.6618,-1.6635,-1.6626,-1.6628,-1.6632,-1.6618,-1.6653,-1.6644,-1.6625,-1.6597,-1.6642,-1.6658,-1.6665,-1.6574,-1.6573,-1.6573,-1.6572,0,0,-1.6702,-1.6684,-1.6691,-1.6688,-1.6678,-1.6684,-1.6699,-1.67,-1.6705,-1.6702,-1.6714,-1.6723,-1.6705,-1.6705,-1.669,-1.6703,-1.6744,-1.6682,-1.6681,-1.6694,-1.6783,-1.6798,-1.6806,-1.6731,-1.6732,-1.6733,-1.6784,0,-1.6753,-1.6776,-1.6756,-1.6783,-1.6792,-1.6762,-1.6775,-1.677,-1.676,-1.6766,-1.6754,-1.6761,-1.6737,-1.6736,-1.6748,-1.6737,-1.6762,-1.6733,-1.6743,-1.6743,-1.6745,-1.6815,-1.6831,-1.6878,-1.679,-1.6791,-1.6792,0,-1.6815,-1.6815,-1.6843,-1.683,-1.6833,-1.6845,-1.6844,-1.685,-1.6844,-1.6836,-1.6835,-1.6816,-1.683,-1.6802,-1.6821,-1.6801,-1.6804,-1.6799,-1.6801,-1.6801,-1.6771,-1.6818,-1.6893,-1.6901,-1.6801,-1.68,-1.68,0,-1.6872,-1.6879,-1.6896,-1.6895,-1.6881,-1.689,-1.6884,-1.6877,-1.6879,-1.6879,-1.688,-1.6881,-1.6883,-1.6884,-1.6866,-1.6848,-1.6887,-1.6858,-1.6881,-1.6882,-1.6892,-1.6891,-1.6969,-1.6893,-1.6893,-1.6892,-1.6892,0,-1.6931,-1.695,-1.6922,-1.6933,-1.6953,-1.6929,-1.695,-1.6941,-1.6935,-1.6944,-1.6918,-1.6927,-1.6903,-1.691,-1.6896,-1.6913,-1.6914,-1.6908,-1.6904,-1.6911,-1.6911,-1.6912,-1.6909,-1.6894,-1.6894,-1.6894,-1.6893,0,-1.6999,-1.6981,-1.6998,-1.6983,-1.698,-1.6995,-1.6982,-1.6992,-1.698,-1.6992,-1.6993,-1.6974,-1.6981,-1.6963,-1.6967,-1.6957,-1.6983,-1.6974,-1.6985,-1.6982,-1.7007,-1.7005,-1.7089,-1.7099,-1.7015,-1.7016,-1.7017,0,-1.7038,-1.7052,-1.7038,-1.7042,-1.7037,-1.7044,-1.7046,-1.7023,-1.7026,-1.702,-1.7031,-1.7035,-1.7037,-1.7049,-1.7036,-1.7039,-1.703,-1.7059,-1.703,-1.7036,-1.7031,-1.703,-1.7032,-1.7065,-1.7066,-1.7067,-1.7067,0,-1.711,-1.71,-1.7103,-1.7104,-1.7106,-1.7106,-1.7103,-1.7108,-1.7084,-1.7089,-1.7095,-1.7096,-1.71,-1.7104,-1.7104,-1.7099,-1.708,-1.7076,-1.7082,-1.7089,-1.7095,-1.7093,-1.7002,-1.7075,-1.7074,-1.7073,-1.7073,-1.7073,-1.7165,-1.7175,-1.7167,-1.7171,-1.7167,-1.7165,-1.7173,-1.7162,-1.7166,-1.7167,-1.7154,-1.7163,-1.7156,-1.7154,-1.715,-1.7157,-1.7144,-1.7152,-1.7154,-1.7157,-1.7161,-1.7094,-1.7157,-1.7157,-1.7157,-1.7157,-1.7156,0,-1.7235,-1.7228,-1.7232,-1.7229,-1.7233,-1.7213,-1.721,-1.7214,-1.7222,-1.7217,-1.722,-1.7227,-1.7231,-1.7218,-1.7221,-1.7229,-1.722,-1.723,-1.723,-1.7229,-1.7173,-1.7168,-1.7237,-1.7237,-1.7237,-1.7237,-1.7237,-1.7237,-1.7272,-1.7289,-1.7278,-1.7293,-1.7285,-1.7293,-1.7293,-1.7291,-1.7287,-1.7296,-1.7299,-1.7291,-1.7283,-1.7284,-1.7288,-1.7284,-1.7286,-1.73,-1.7293,-1.7241,-1.7233,-1.7225,-1.7221,-1.73,-1.73,-1.7348,-1.7349,-1.7349]},{"header":{"parameterUnit":"m.s-1","parameterCategory":1,"la1":30.2991,"la2":30.254,"lo1":-89.0895,"lo2":-89.0444,"dy":0.0017,"dx":0.0017,"nx":28,"ny":28,"refTime":"2025-11-27T03:00:00:Z","depth":0,"parameterNumber":3,"parameterNumberName":"V-component_of_WINDS"},"data":[0,0,0,0,0,0,0,0,0,0,0,0,0,0,0,0,0,0,0,0,0,0,0,0,0,0,0,0,0,0,0,0,0,0,0,0,0,0,0,0,0,0,0,0,0,0,0,0,0,0,0,0,0,0,0,0,0,0,-4.1972,-4.1973,0,-4.2056,-4.2057,-4.2058,-4.2056,-4.2055,-4.2054,-4.2053,-4.2135,-4.2138,-4.2141,0,0,0,0,0,0,0,0,0,0,0,0,0,-4.1807,-4.181,-4.1972,-4.1973,-4.1974,-4.2056,-4.2057,-4.2058,-4.2056,-4.2055,-4.2054,-4.2052,-4.2134,-4.2137,-4.2141,0,0,0,0,0,0,0,0,0,0,0,0,0,-4.1884,-4.1811,-4.1972,-4.1983,-4.1985,-4.2056,-4.2057,-4.2058,-4.2057,-4.2055,-4.2053,-4.2052,-4.2132,-4.2137,-4.2142,-4.2205,0,0,-4.2157,-4.2159,0,0,0,0,0,0,0,0,-4.1879,-4.189,-4.1981,-4.1983,-4.1985,-4.2044,-4.2029,-4.2107,-4.2057,-4.2029,-4.2053,-4.2051,-4.2106,-4.2113,-4.2132,-4.2209,-4.2212,-4.2157,-4.216,-4.2162,-4.2163,0,0,0,0,0,0,0,-4.1874,-4.1886,-4.2005,-4.1982,-4.1985,-4.1983,-4.1992,-4.2044,-4.2076,-4.2032,-4.2032,-4.2042,-4.2106,-4.2127,-4.2134,-4.2214,-4.2157,-4.2161,-4.2164,-4.2166,-4.2348,-4.2349,0,0,0,0,0,0,-4.1867,-4.1882,-4.2002,-4.2008,-4.1927,-4.1987,-4.1998,-4.2027,-4.2075,-4.2081,-4.2043,-4.2042,-4.212,-4.2128,-4.2137,-4.2215,-4.2162,-4.2166,-4.2169,-4.2346,-4.2348,-4.235,0,0,0,0,0,0,-4.1863,-4.1878,-4.1999,-4.1945,-4.196,-4.1992,-4.2025,-4.2029,-4.205,-4.2084,-4.2089,-4.2059,-4.2119,-4.213,-4.2189,-4.2217,-4.2169,-4.2173,-4.2343,-4.2346,-4.2349,-4.2371,0,0,0,0,0,0,-4.1859,-4.1876,-4.1902,-4.1945,-4.1963,-4.2051,-4.2027,-4.2032,-4.2059,-4.2057,-4.21,-4.2105,-4.2118,-4.2181,-4.2193,-4.2223,-4.2177,-4.2341,-4.2345,-4.2348,-4.2368,-4.2374,-4.2379,0,0,0,0,0,-4.1853,-4.1903,-4.1903,-4.1917,-4.1995,-4.2052,-4.2062,-4.2077,-4.2061,-4.2086,-4.2108,-4.2104,-4.2212,-4.2187,-4.2201,-4.2233,-4.2339,-4.2344,-4.2348,-4.2365,-4.2373,-4.2379,0,0,0,0,0,0,-4.186,-4.1909,-4.1909,-4.1976,-4.201,-4.2052,-4.2084,-4.2085,-4.2124,-4.212,-4.2136,-4.2146,-4.2205,-4.2224,-4.2196,-4.2297,-4.2274,-4.2281,-4.2282,-4.229,-4.2295,-4.2289,-4.2181,0,0,0,0,0,-4.187,-4.1913,-4.1953,-4.2008,-4.2025,-4.2052,-4.2077,-4.2086,-4.2122,-4.2136,-4.2162,-4.2196,-4.2237,-4.2264,-4.2305,-4.237,-4.238,-4.2399,-4.2405,-4.2409,-4.2415,-4.2452,-4.2461,-4.2364,-4.2364,-4.2364,0,0,-4.1889,-4.1922,-4.1948,-4.201,-4.2038,-4.2082,-4.2064,-4.2111,-4.2143,-4.2142,-4.22,-4.2221,-4.2259,-4.2322,-4.2351,-4.234,-4.2444,-4.2415,-4.2418,-4.2422,-4.2458,-4.2467,-4.2475,-4.2367,-4.2367,-4.2366,0,0,-4.1948,-4.1977,-4.2026,-4.2055,-4.2098,-4.2115,-4.2127,-4.2169,-4.2183,-4.2242,-4.2243,-4.2281,-4.2352,-4.238,-4.2403,-4.2474,-4.2472,-4.2486,-4.2517,-4.2553,-4.2561,-4.2567,-4.2593,-4.2602,-4.2492,-4.2492,-4.2492,0,-4.1967,-4.2034,-4.2051,-4.2099,-4.2126,-4.2129,-4.2179,-4.2205,-4.2258,-4.2276,-4.2264,-4.2355,-4.2381,-4.245,-4.2468,-4.2486,-4.25,-4.2481,-4.2558,-4.2565,-4.2572,-4.2597,-4.2606,-4.2494,-4.2494,-4.2493,-4.2493,0,-4.2056,-4.2102,-4.2137,-4.219,-4.2221,-4.2269,-4.2292,-4.2322,-4.2328,-4.2346,-4.2406,-4.2438,-4.2485,-4.2502,-4.2507,-4.2573,-4.2565,-4.2555,-4.2532,-4.2583,-4.2606,-4.2615,-4.2496,-4.2495,-4.2495,-4.2495,0,0,-4.2121,-4.2184,-4.2196,-4.2221,-4.2269,-4.2305,-4.2353,-4.2401,-4.2426,-4.2462,-4.2503,-4.2564,-4.2556,-4.2582,-4.2591,-4.2622,-4.2677,-4.2609,-4.261,-4.2621,-4.2751,-4.2758,-4.2769,-4.2676,-4.2678,-4.2679,-4.2748,0,-4.2185,-4.2273,-4.2289,-4.2365,-4.2408,-4.2412,-4.2454,-4.2488,-4.2506,-4.2545,-4.2565,-4.2608,-4.2594,-4.261,-4.2642,-4.2664,-4.2703,-4.2659,-4.2713,-4.2715,-4.2704,-4.2781,-4.2789,-4.2853,-4.2757,-4.2759,-4.276,0,-4.2271,-4.2312,-4.2393,-4.2436,-4.2455,-4.2493,-4.2538,-4.2575,-4.2613,-4.2625,-4.2655,-4.2661,-4.271,-4.2685,-4.2754,-4.2723,-4.2746,-4.2761,-4.2763,-4.2769,-4.2741,-4.2789,-4.2873,-4.2883,-4.2774,-4.2773,-4.2772,0,-4.2312,-4.2387,-4.2445,-4.2466,-4.2517,-4.2544,-4.2566,-4.2603,-4.2631,-4.267,-4.2688,-4.2732,-4.2756,-4.2789,-4.2806,-4.2786,-4.2874,-4.285,-4.2884,-4.2884,-4.2903,-4.2901,-4.2992,-4.2917,-4.2917,-4.2917,-4.2916,0,-4.2382,-4.2431,-4.2464,-4.25,-4.2555,-4.2573,-4.2627,-4.2649,-4.2682,-4.2721,-4.2726,-4.2763,-4.2783,-4.2822,-4.2836,-4.2891,-4.2901,-4.2911,-4.2914,-4.2911,-4.291,-4.2927,-4.2923,-4.2919,-4.2919,-4.2918,-4.2918,0,-4.2436,-4.246,-4.2524,-4.2569,-4.2581,-4.262,-4.2657,-4.2691,-4.271,-4.276,-4.2773,-4.2803,-4.2849,-4.287,-4.2927,-4.2936,-4.2999,-4.2998,-4.2987,-4.2988,-4.3021,-4.3018,-4.3126,-4.3141,-4.3056,-4.3056,-4.3057,0,-4.248,-4.2518,-4.2567,-4.2595,-4.2619,-4.2663,-4.2692,-4.2711,-4.2741,-4.2788,-4.2816,-4.2864,-4.2903,-4.2977,-4.3003,-4.3047,-4.3048,-4.3082,-4.3054,-4.305,-4.3049,-4.3047,-4.3051,-4.3088,-4.3088,-4.3089,-4.309,0,-4.2554,-4.2565,-4.2607,-4.2654,-4.2689,-4.2727,-4.2763,-4.2785,-4.281,-4.2843,-4.2892,-4.2923,-4.2982,-4.3029,-4.3074,-4.3096,-4.3097,-4.3098,-4.3109,-4.3106,-4.3098,-4.3104,-4.3001,-4.3096,-4.3095,-4.3095,-4.3094,-4.3094,-4.2605,-4.264,-4.268,-4.2728,-4.2757,-4.2792,-4.2827,-4.2851,-4.2893,-4.2944,-4.2952,-4.3004,-4.3041,-4.3103,-4.3127,-4.3167,-4.3159,-4.3173,-4.3177,-4.3181,-4.3183,-4.3092,-4.3175,-4.3175,-4.3175,-4.3175,-4.3175,0,-4.2681,-4.2707,-4.2751,-4.2803,-4.284,-4.2839,-4.288,-4.291,-4.2957,-4.2992,-4.3031,-4.3087,-4.3133,-4.3163,-4.3209,-4.3236,-4.3237,-4.3247,-4.3246,-4.3251,-4.3188,-4.3175,-4.3245,-4.3245,-4.3245,-4.3245,-4.3245,-4.3245,-4.2724,-4.2784,-4.2799,-4.2872,-4.2898,-4.2951,-4.2974,-4.3006,-4.3034,-4.3098,-4.3136,-4.3156,-4.3189,-4.3238,-4.3279,-4.3287,-4.3304,-4.3314,-4.3321,-4.3262,-4.3255,-4.3248,-4.3236,-4.3318,-4.3318,-4.3381,-4.3381,-4.3382]}]]